Regional Weather Roundup
Issued by NWS Midland/Odessa, TX

Skip options and go directly to product.
Home | Oldest Version | Next Version | Current Version | All | Text Only | Save Text | Print | Product List | Glossary On

Skip product version selection by date and time.   
065
ASUS44 KMAF 300701
RWRMAF
MIDLAND AREA WEATHER ROUNDUP
NATIONAL WEATHER SERVICE MIDLAND TX
200 AM CDT SAT JUL 30 2016

...IN SOUTHWEST TEXAS AND SOUTHEAST NEW MEXICO...

CITY           SKY/WX    TMP DP  RH WIND       PRES   REMARKS
ALPINE         CLOUDY    67  60  77 S5        30.20S
ANDREWS        FAIR      77  64  62 S9        30.07F
ARTESIA        CLEAR     77  57  50 SE10      30.06F
BIG SPRING     CLEAR     78  63  59 S8        30.07S
CARLSBAD       CLEAR     79  59  50 SE12      30.04R
DRYDEN           N/A     78  66  66 E5        30.02R
FORT STOCKTON  CLEAR     75  64  68 SE5       30.06S
GUAD PASS      CLEAR     71  57  61 VRB3      30.21R
HOBBS          CLEAR     75  59  57 S8        30.11R
MARFA          CLOUDY    62  59  90 N3        30.19R
MIDLAND AIRPK  CLEAR     81  64  55 S8        30.06S
MIDLAND INTL   CLEAR     80  64  58 S10       30.06S
ODESSA         CLEAR     80  63  55 S10       30.07S
PECOS          CLEAR     77  60  55 SE8       30.03S
PRESIDIO       FAIR      76  63  62 NE7       30.04R
SEMINOLE       CLEAR     74  60  60 S6        30.09S
SNYDER           N/A     77  63  61 S8        30.04S
WINK           CLEAR     78  63  59 SE9       30.03S
$$
...OTHER STATIONS IN TEXAS...

CITY           SKY/WX    TMP DP  RH WIND       PRES   REMARKS
ABILENE        CLEAR     78  64  61 S10       30.02S
AMARILLO       LGT RAIN  65  60  84 SW13      30.13F
AUSTIN         PTCLDY    77  74  90 S7        30.03R
BROWNSVILLE    CLEAR     80  77  90 S7        29.98F
CORPUS CHRISTI PTCLDY    81  78  91 S7        29.97F
DALLAS FTW     PTCLDY    84  72  67 S10       29.97F
DEL RIO        PTCLDY    78  69  73 SE6       29.99S
EL PASO        PTCLDY    80  60  50 SE7       30.05R
HOUSTON INT    PTCLDY    80  75  84 CALM      30.02R
LUBBOCK        MOCLDY    73  59  61 N18G25    30.10R
SAN ANGELO     CLEAR     77  62  59 S7        30.03R
SAN ANTONIO    MOCLDY    79  73  82 S7        30.04S
WACO           CLOUDY    84  71  65 S17       30.00R
WICHITA FALLS  NOT AVBL
$$
...OTHER LOCATIONS IN NEW MEXICO...

CITY           SKY/WX    TMP DP  RH WIND       PRES   REMARKS
ALAMAGORDO     CLOUDY    77  52  41 S8        30.07S
ALBUQUERQUE    MOCLDY    70  58  65 E6        30.18R
CANNON AFB     CLOUDY    68  62  80 SE20G25   30.13F
CLOVIS         CLOUDY    66  59  77 E20G26    30.16F
HOLLOMAN AFB   CLOUDY    79  56  46 W7        30.05R
ROSWELL        CLEAR     76  54  46 N6        30.07S
RUIDOSO          N/A     64  48  55 S5        30.32S
SANTA FE       CLOUDY    66  48  52 SW10      30.24R
TRUTH OR CONSE PTCLDY    72  49  44 NW8       30.09F
TUCUMCARI      CLEAR     65  61  87 NE6       30.11F
$$

USA.gov is the U.S. government's official web portal to all federal, state and local government web resources and services.